Regional Weather Roundup
Issued by NWS

Home | Current Version | Previous Version | Text Only | Print | Product List | Glossary Off
Versions: 1 2 3 4 5 6 7 8 9 10 11 12 13 14 15 16 17 18 19 20 21 22 23 24 25 26 27 28 29 30 31 32 33 34 35 36 37 38 39 40 41 42 43 44 45 46 47 48 49 50

000
ASUS45 KPSR 171410
RWRAZ

ARIZONA HOURLY REGIONAL WEATHER ROUNDUP
NATIONAL WEATHER SERVICE PHOENIX AZ
700 AM MST SAT FEB 17 2018

NOTE: FAIR INDICATES FEW OR NO CLOUDS BELOW 12,000 FEET WITH NO
SIGNIFICANT WEATHER AND/OR OBSTRUCTIONS TO VISIBILITY.

AZZ001>003-036-171500-
NORTHWEST ARIZONA

CITY           SKY/WX    TMP DP  RH WIND       PRES   REMARKS
BULLHEAD CITY  CLEAR     45  23  42 CALM      30.17S
KINGMAN        CLEAR     30  22  72 CALM      30.18R
$$

AZZ004>008-015-016-018-171500-
NORTH CENTRAL ARIZONA

CITY           SKY/WX    TMP DP  RH WIND       PRES   REMARKS
GRAND CANYON   PTCLDY    15  11  83 CALM      30.22R
WILLIAMS       CLEAR     21  18  86 S7        30.18S WCI  13
PRESCOTT       CLEAR     31  28  89 S8        30.18F WCI  23
FLAGSTAFF      CLEAR     20  18  92 NE3       30.20S
PAYSON         CLEAR     37  36  93 SE7       30.18S WCI  32
PAGE           PTCLDY    30  21  69 W3        30.22R
$$

AZZ009>014-017-171500-
NORTHEAST ARIZONA

CITY           SKY/WX    TMP DP  RH WIND       PRES   REMARKS
WINSLOW        MOCLDY    21  17  84 SE3       30.22R
SAINT JOHNS    CLEAR     29  28  96 S7        30.21F WCI  22
WINDOW ROCK    CLEAR     18  16  92 CALM      30.22S
SHOW LOW       PTCLDY    28  28 100 E3        30.24R FOG
$$

AZZ540-542>544-546-548-171500-
GREATER PHOENIX AREA

CITY           SKY/WX    TMP DP  RH WIND       PRES   REMARKS
PHOENIX        PTCLDY    50  49  96 CALM      30.13R
BUCKEYE        CLEAR     41  41 100 N3        30.15R
LUKE AFB       CLEAR     46  46 100 CALM      30.13R
DEER VALLEY    CLEAR     48  42  80 N6        30.13R
SCOTTSDALE     CLEAR     47  44  90 CALM      30.15R
MESA-FALCON    PTCLDY    52  43  71 N9        30.15
MESA-GATEWAY   PTCLDY    46  46 100 NE5       30.16R FOG
CHANDLER       CLEAR     48  48 100 CALM      30.15R FOG
$$

AZZ539-553-171500-
SOUTHWEST MARICOPA COUNTY AND PINAL COUNTY

CITY           SKY/WX    TMP DP  RH WIND       PRES   REMARKS
CASA GRANDE      N/A     46  46 100 N6        30.15R FOG
GILA BEND      FAIR      42  42  99 E3        30.14R
$$

AZZ503-504-507>509-171500-
SOUTHEAST ARIZONA

CITY           SKY/WX    TMP DP  RH WIND       PRES   REMARKS
TUCSON         CLOUDY    54  53  97 CALM      30.16R FOG
DAVIS-MONTHAN  CLOUDY    53  53 100 CALM      30.14R FOG
RYAN FIELD     MOCLDY    54  54 100 CALM      30.16R
NOGALES        FOG       47  47 100 CALM      30.15R VSB 1/4
SIERRA VISTA   CLOUDY    44  43  98 CALM      30.18S
DOUGLAS        MOCLDY    44  44 100 S3        30.17R
SAFFORD        CLOUDY    50  50 100 CALM      30.15R FOG
$$

AZZ532-171500-
SOUTHWEST ARIZONA

CITY           SKY/WX    TMP DP  RH WIND       PRES   REMARKS
YUMA           CLEAR     48  26  42 NE5       30.12R
$$

CAZ041-043-047-048-061-525>527-560>570-171500-
SOUTHERN CALIFORNIA

CITY           SKY/WX    TMP DP  RH WIND       PRES   REMARKS
DOWNTOWN L.A.  CLEAR     51  25  36 CALM      30.09R HAZE
L.A. AIRPORT   CLEAR     53  27  36 CALM      30.09S
SAN DIEGO      PTCLDY    51  30  44 CALM      30.11S
BURBANK        CLEAR     47  30  51 CALM      30.09S
ONTARIO        PTCLDY    50  21  32 NE5       30.11R
RIVERSIDE      CLEAR     44  24  45 NE7       30.11S
PALM SPRINGS   CLEAR     50  21  32 NW6       30.14S
EL CENTRO NAS  CLEAR     40  14  34 W7        30.15R
IMPERIAL       CLEAR     42  20  41 CALM      30.12S
BLYTHE         CLEAR     40   9  28 CALM      30.15S
NEEDLES        CLEAR     44  14  29 CALM      30.17R
$$

NVZ020-UTZ003-171500-
SOUTHERN NEVADA-UTAH

CITY           SKY/WX    TMP DP  RH WIND       PRES   REMARKS
LAS VEGAS      CLEAR     41  19  41 CALM      30.19R
SALT LAKE CITY PTCLDY    32  18  56 SE10      30.19F WCI  24
$$

NMZ009-TXZ055-171500-
NEW MEXICO-WEST TEXAS

CITY           SKY/WX    TMP DP  RH WIND       PRES   REMARKS
ALBUQUERQUE    FOG       31  31 100 SE5       30.21R VSB 1/4 WCI  26
EL PASO        MOCLDY    51  48  89 CALM      30.15R
$$


........................KEY........................
SKY/WX - SKY CONDITION/WEATHER
TMP    - TEMPERATURE IN FAHRENHEIT
DP     - DEW POINT IN FAHRENHEIT
RH     - RELATIVE HUMIDITY IN PERCENT
WIND   - DIRECTION AND SPEED IN MILES PER HOUR (MPH)
VRB    - VARIABLE WIND DIRECTION
PRES   - MEAN SEA LEVEL PRESSURE IN INCHES OF MERCURY
         F - FALLING PRESSURE   R - RISING PRESSURE
         S - STEADY PRESSURE
VSB    - VISIBILITY IN MILES
HX     - HEAT INDEX IN FAHRENHEIT
WCI    - WIND CHILL INDEX IN FAHRENHEIT
TC     - TEMPERATURE IN CELSIUS WHICH IS ALSO KNOWN AS
         TEMPERATURE IN CENTIGRADE
AFB    - AIR FORCE BASE
         LUKE AFB IS LUKE AIR FORCE BASE
         DAVIS-MONTHAN IS DAVIS-MONTHAN AIR FORCE BASE
NAS    - NAVAL AIR STATION
         EL CENTRO NAS IS EL CENTRO NAVAL AIR STATION
N/A    - NOT AVAILABLE




USA.gov is the U.S. government's official web portal to all federal, state and local government web resources and services.